Location: Carrières
(48.9495°N, 2.0407°E)
Time: 06:54:05
(UTC+00:00)

Tiros 1 despin weight - Pass Details

Date: 24 April 2024
Orbit: 578 x 620 km, 48.2° (Epoch: 28 May)

Event Time Altitude Azimuth Distance (km) Brightness Sun altitude
Rises 17:14:31 0° 280° (W) 2,867 ? 15.7°
Reaches altitude 10° 17:17:26 10° 261° (W) 1,968 ? 15.2°
Maximum altitude 17:20:26 18° 219° (SW) 1,531 ? 14.7°
Drops below altitude 10° 17:23:27 10° 177° (S) 1,974 ? 14.2°
Sets 17:26:23 0° 158° (SSE) 2,879 ? 13.7°
